Change the Weather History Date:

Thursday, November 28, 2013

  Actual Average Record
Temperature  
Mean Temperature 45 °F -  
Max Temperature 54 °F 46 °F 57 °F (2014)
Min Temperature 36 °F 36 °F 15 °F (2006)
Degree Days  
Heating Degree Days 20    
Moisture  
Dew Point 36 °F    
Average Humidity 83    
Maximum Humidity 89    
Minimum Humidity 55    
Precipitation  
Precipitation 0.01 in - - ()
Sea Level Pressure  
Sea Level Pressure 30.09 in    
Wind  
Wind Speed 6 mph (ESE)    
Max Wind Speed 9 mph    
Max Gust Speed -    
Visibility 5 miles    
Events Fog    
Averages and records for this station are not official NWS values.
T = Trace of Precipitation, MM = Missing Value Source: NWS Daily Summary

Daily Weather History Graph

Daily Weather History Graph

Search for Another Location

Airport or City:

Trip Planner

Search our weather history database for the weather conditions in past years. The results will help you decide how hot, cold, wet, or windy it might be!

Date:

Astronomy

Nov. 28, 2013 Rise Set
Actual Time 7:37 AM PST 4:19 PM PST
Civil Twilight 7:01 AM PST 4:55 PM PST
Nautical Twilight 6:22 AM PST 5:34 PM PST
Astronomical Twilight 5:45 AM PST 6:11 PM PST
Moon 2:25 AM PST (11/28) 1:50 PM PST (11/28)
Length of Visible Light 9h 53m
Length of Day
8h 42m
Waning Crescent, 21% of the Moon is Illuminated
Nov 28
Waning Crescent
Dec 2
New
Dec 9
First Quarter
Dec 17
Full
Dec 25
Last Quarter

Hourly Weather History & Observations

Time (PST) Temp. Windchill Dew Point Humidity Pressure Visibility Wind Dir Wind Speed Gust Speed Precip Events Conditions
12:15 AM 41.0 °F - 37.9 °F 89% 30.05 in 1.8 mi Calm Calm - N/A   Clear
12:43 AM 37.0 °F 33.3 °F 33.1 °F 86% 30.04 in 0.5 mi ESE 4.6 mph - N/A Fog Fog
12:56 AM 37.9 °F 33.5 °F 34.0 °F 86% 30.06 in 0.8 mi ESE 5.8 mph - N/A   Clear
1:09 AM 37.9 °F 32.7 °F 34.0 °F 86% 30.04 in 1.5 mi ESE 6.9 mph - N/A   Clear
1:23 AM 37.0 °F 31.0 °F 33.1 °F 86% 30.04 in 0.8 mi ESE 8.1 mph - N/A   Clear
1:34 AM 37.9 °F 31.5 °F 34.0 °F 86% 30.05 in 2.0 mi East 9.2 mph - N/A   Clear
1:42 AM 39.0 °F 33.4 °F 35.1 °F 86% 30.05 in 9.0 mi East 8.1 mph - N/A   Clear
1:56 AM 41.0 °F 38.0 °F 37.0 °F 86% 30.06 in 10.0 mi East 4.6 mph - N/A   Clear
2:56 AM 39.0 °F 35.7 °F 36.0 °F 89% 30.07 in 10.0 mi SE 4.6 mph - N/A   Clear
3:13 AM 37.9 °F 34.4 °F 34.0 °F 86% 30.05 in 0.8 mi ESE 4.6 mph - N/A   Mist
3:24 AM 37.0 °F 32.4 °F 33.1 °F 86% 30.05 in 0.2 mi SE 5.8 mph - N/A Fog Fog
3:37 AM 37.9 °F 33.5 °F 35.1 °F 89% 30.05 in 0.5 mi ESE 5.8 mph - N/A Fog Fog
3:56 AM 37.9 °F 32.7 °F 35.1 °F 89% 30.07 in 0.5 mi ESE 6.9 mph - N/A Fog Fog
4:08 AM 37.9 °F 33.5 °F 35.1 °F 89% 30.06 in 1.0 mi ESE 5.8 mph - N/A   Clear
4:16 AM 37.0 °F 31.0 °F 34.0 °F 89% 30.06 in 0.5 mi SE 8.1 mph - N/A Fog Fog
4:53 AM 37.4 °F 31.4 °F 33.8 °F 87% 30.06 in 1.2 mi ESE 8.1 mph - N/A   Partly Cloudy
4:56 AM 37.0 °F 31.0 °F 34.0 °F 89% 30.07 in 2.0 mi ESE 8.1 mph - N/A   Partly Cloudy
5:04 AM 37.9 °F 33.5 °F 34.0 °F 86% 30.06 in 3.0 mi ESE 5.8 mph - N/A   Partly Cloudy
5:39 AM 39.9 °F 33.9 °F 36.0 °F 86% 30.06 in 1.8 mi ESE 9.2 mph - N/A   Clear
5:44 AM 39.0 °F 34.0 °F 35.1 °F 86% 30.07 in 0.8 mi ESE 6.9 mph - N/A   Mist
5:56 AM 37.9 °F 32.1 °F 34.0 °F 86% 30.08 in 0.5 mi ESE 8.1 mph - N/A Fog Fog
6:37 AM 37.0 °F 31.6 °F 34.0 °F 89% 30.08 in 1.2 mi SE 6.9 mph - N/A   Scattered Clouds
6:43 AM 37.0 °F 31.0 °F 33.1 °F 86% 30.08 in 3.0 mi SE 8.1 mph - N/A   Scattered Clouds
6:56 AM 37.0 °F 30.4 °F 34.0 °F 89% 30.09 in 5.0 mi SE 9.2 mph - N/A   Partly Cloudy
7:00 AM 36.0 °F 29.6 °F 33.1 °F 89% 30.08 in 1.8 mi SE 8.1 mph - N/A   Clear
7:10 AM 37.9 °F 32.1 °F 34.0 °F 86% 30.08 in 0.8 mi ESE 8.1 mph - N/A   Clear
7:14 AM 39.0 °F 33.4 °F 35.1 °F 86% 30.08 in 2.0 mi ESE 8.1 mph - N/A   Clear
7:25 AM 37.0 °F 31.6 °F 34.0 °F 89% 30.08 in 0.8 mi SE 6.9 mph - N/A   Mist
7:36 AM 36.0 °F 32.1 °F 33.1 °F 89% 30.09 in 0.2 mi SE 4.6 mph - N/A Fog Fog
7:51 AM 37.4 °F 31.4 °F 33.8 °F 87% 30.08 in 0.2 mi ESE 8.1 mph - N/A Fog Fog
7:56 AM 37.0 °F 31.0 °F 33.1 °F 86% 30.10 in 0.2 mi ESE 8.1 mph - N/A Fog Fog
8:46 AM 41.0 °F 38.0 °F 37.9 °F 89% 30.10 in 1.0 mi ESE 4.6 mph - N/A   Mist
8:49 AM 42.1 °F 40.2 °F 39.0 °F 89% 30.10 in 2.5 mi ESE 3.5 mph - N/A   Scattered Clouds
8:56 AM 42.1 °F - 39.0 °F 89% 30.12 in 7.0 mi Calm Calm - N/A   Scattered Clouds
9:56 AM 43.0 °F 39.5 °F 39.0 °F 86% 30.12 in 10.0 mi ESE 5.8 mph - N/A   Clear
10:56 AM 46.9 °F - 39.9 °F 77% 30.13 in 10.0 mi ESE 4.6 mph - N/A   Clear
11:56 AM 50.0 °F - 39.9 °F 68% 30.12 in 10.0 mi East 5.8 mph - N/A   Clear
12:56 PM 51.1 °F - 39.9 °F 66% 30.12 in 10.0 mi ESE 6.9 mph - N/A   Clear
1:56 PM 54.0 °F - 37.9 °F 55% 30.12 in 10.0 mi ESE 3.5 mph - N/A   Scattered Clouds
2:56 PM 52.0 °F - 41.0 °F 66% 30.12 in 10.0 mi ESE 5.8 mph - N/A   Overcast
3:56 PM 48.9 °F - 37.9 °F 66% 30.13 in 10.0 mi ESE 5.8 mph - N/A   Mostly Cloudy
4:56 PM 46.9 °F - 37.9 °F 71% 30.14 in 10.0 mi SSE 4.6 mph - N/A   Mostly Cloudy
5:56 PM 46.0 °F 43.9 °F 37.9 °F 73% 30.15 in 10.0 mi SSE 4.6 mph - N/A   Mostly Cloudy
6:56 PM 45.0 °F 40.6 °F 39.0 °F 80% 30.15 in 10.0 mi East 8.1 mph - N/A   Overcast
7:56 PM 46.0 °F 43.1 °F 39.9 °F 79% 30.15 in 10.0 mi East 5.8 mph - 0.00 in   Mostly Cloudy
8:56 PM 46.9 °F - 41.0 °F 80% 30.16 in 10.0 mi SE 6.9 mph - N/A   Overcast
9:56 PM 46.9 °F - 39.9 °F 77% 30.18 in 10.0 mi ESE 5.8 mph - N/A   Overcast
10:56 PM 46.0 °F 42.5 °F 39.9 °F 79% 30.19 in 10.0 mi East 6.9 mph - 0.01 in   Overcast
11:56 PM 46.0 °F 41.9 °F 39.9 °F 79% 30.20 in 10.0 mi ESE 8.1 mph - N/A   Mostly Cloudy